Location: Unspecified
(35.6961°N, 0.0000°E)
Time: 16:34:31
(UTC+00:00)

Vanguard 3 - Pass Details

Date: 03 June 2019
Orbit: 508 x 3263 km, 33.3° (Epoch: 16 June)

Event Time Altitude Azimuth Distance (km) Brightness Sun altitude
Rises 20:08:23 0° 269° (W) 2,774 10.8 -10.5°
Reaches altitude 10° 20:10:17 10° 267° (W) 2,007 9.9 -10.8°
Maximum altitude 20:14:44 67° 185° (S) 884 7.2 -11.5°
Enters shadow 20:21:27 12° 104° (ESE) 3,018 9.5 -12.6°
Drops below altitude 10° 20:22:02 10° 103° (ESE) 3,240 - -12.7°
Sets 20:25:52 0° 102° (ESE) 4,670 - -13.2°
